Simultaneous Nadir Overpasses (SNOs) Predictions

Prediction of SNOs between GOES-17 and METOP-C Satellite Orbit:

Table of predicted SNOs for the next 14.0 days since TLE Epoch: 9/17/2022
Index Date Time (GOES-17) GOES-17 Lat,Lon METOP-C Lat,Lon Distance(km) Time Diff (sec)
1 09/18/2022 06:45:00 0.05,-137.28 -0.32,-138.99 194.06 80
2 09/19/2022 06:27:00 0.05,-137.27 0.78,-133.99 374.19 80
3 09/20/2022 18:43:09 -0.05,-137.26 0.24,-138.55 146.08 80
4 09/21/2022 18:25:09 -0.05,-137.25 -0.86,-133.55 421.90 80
5 09/23/2022 06:41:29 0.05,-137.22 -0.14,-138.15 105.37 80
6 09/24/2022 06:23:28 0.05,-137.21 0.97,-133.15 462.35 80
7 09/25/2022 18:39:38 -0.05,-137.19 0.04,-137.71 58.69 80
8 09/28/2022 06:37:56 0.05,-137.13 0.01,-137.30 19.49 80
9 09/30/2022 18:38:45 -0.04,-137.08 -0.11,-136.86 24.83 80
